Hourly Weather Puebla

Today, 29 July, Thursday

Time Temperature Precipitation Wind Pressure Humidity
00:00 +15°C° 0 mm 2 mps 589 mmHg 86%
01:00 +15°C° 0 mm 2 mps 589 mmHg 87%
02:00 +14°C° 0 mm 2 mps 588 mmHg 88%
03:00 +14°C° 0 mm 2 mps 588 mmHg 88%
04:00 +13°C° 0 mm 2 mps 588 mmHg 88%
05:00 +13°C° 0 mm 2 mps 588 mmHg 88%
06:00 +15°C° 0 mm 2 mps 589 mmHg 80%
07:00 +17°C° 0 mm 3 mps 590 mmHg 72%
08:00 +19°C° 0 mm 3 mps 591 mmHg 64%
09:00 +20°C° 0 mm 3 mps 591 mmHg 57%
10:00 +23°C° 0 mm 2 mps 592 mmHg 50%
11:00 +25°C° 0 mm 2 mps 592 mmHg 42%
12:00 +25°C° 0 mm 2 mps 591 mmHg 41%
13:00 +26°C° 0 mm 3 mps 591 mmHg 40%
14:00 +26°C° 0 mm 3 mps 590 mmHg 39%
15:00 +25°C° 0 mm 3 mps 590 mmHg 46%
16:00 +23°C° 0 mm 2 mps 589 mmHg 53%
17:00 +21°C° 0 mm 2 mps 589 mmHg 61%
18:00 +19°C° 0.1 mm 3 mps 589 mmHg 66%
19:00 +18°C° 0.1 mm 3 mps 589 mmHg 72%
20:00 +15°C° 0.1 mm 4 mps 589 mmHg 78%
21:00 +16°C° 0 mm 3 mps 589 mmHg 80%
22:00 +14°C° 0 mm 3 mps 589 mmHg 81%
23:00 +14°C° 0 mm 3 mps 589 mmHg 83%

Tomorrow, 30 July, Friday

Time Temperature Precipitation Wind Pressure Humidity
00:00 +13°C° 0 mm 3 mps 589 mmHg 84%
01:00 +13°C° 0 mm 3 mps 589 mmHg 85%
02:00 +13°C° 0 mm 2 mps 588 mmHg 86%
03:00 +13°C° 0 mm 2 mps 588 mmHg 86%
04:00 +13°C° 0 mm 2 mps 588 mmHg 85%
05:00 +13°C° 0 mm 2 mps 588 mmHg 85%
06:00 +15°C° 0 mm 2 mps 589 mmHg 78%
07:00 +17°C° 0 mm 3 mps 590 mmHg 72%
08:00 +19°C° 0 mm 3 mps 591 mmHg 66%
09:00 +20°C° 0.1 mm 3 mps 591 mmHg 61%
10:00 +23°C° 0.1 mm 2 mps 591 mmHg 56%
11:00 +24°C° 0.1 mm 2 mps 592 mmHg 51%
12:00 +23°C° 0.2 mm 2 mps 591 mmHg 54%
13:00 +23°C° 0.2 mm 2 mps 591 mmHg 57%
14:00 +22°C° 0.2 mm 1 mps 590 mmHg 61%
15:00 +21°C° 0.1 mm 2 mps 590 mmHg 62%
16:00 +20°C° 0.1 mm 2 mps 590 mmHg 64%
17:00 +19°C° 0.1 mm 2 mps 590 mmHg 66%
18:00 +18°C° 0 mm 2 mps 590 mmHg 70%
19:00 +17°C° 0 mm 3 mps 590 mmHg 74%
20:00 +14°C° 0 mm 3 mps 590 mmHg 79%
21:00 +14°C° 0 mm 3 mps 590 mmHg 79%
22:00 +14°C° 0 mm 2 mps 590 mmHg 79%
23:00 +14°C° 0 mm 2 mps 590 mmHg 80%

Day after tomorrow, 31 July, Saturday

Time Temperature Precipitation Wind Pressure Humidity
00:00 +14°C° 0 mm 2 mps 590 mmHg 79%
01:00 +13°C° 0 mm 2 mps 589 mmHg 79%
02:00 +13°C° 0 mm 2 mps 589 mmHg 79%
03:00 +12°C° 0 mm 2 mps 589 mmHg 77%
04:00 +12°C° 0 mm 2 mps 589 mmHg 76%
05:00 +12°C° 0 mm 2 mps 589 mmHg 74%
06:00 +14°C° 0 mm 2 mps 590 mmHg 65%
07:00 +16°C° 0 mm 2 mps 591 mmHg 56%
08:00 +19°C° 0 mm 2 mps 592 mmHg 47%
09:00 +20°C° 0 mm 2 mps 592 mmHg 44%
10:00 +23°C° 0 mm 2 mps 593 mmHg 40%
11:00 +25°C° 0 mm 2 mps 593 mmHg 37%
12:00 +25°C° 0 mm 2 mps 593 mmHg 38%
13:00 +25°C° 0 mm 3 mps 592 mmHg 40%
14:00 +26°C° 0 mm 3 mps 592 mmHg 41%
15:00 +24°C° 0.2 mm 3 mps 591 mmHg 51%
16:00 +21°C° 0.2 mm 3 mps 591 mmHg 61%
17:00 +19°C° 0.2 mm 3 mps 590 mmHg 71%
18:00 +18°C° 0.2 mm 3 mps 590 mmHg 74%
19:00 +17°C° 0.2 mm 3 mps 590 mmHg 77%
20:00 +16°C° 0.2 mm 2 mps 590 mmHg 79%
21:00 +16°C° 0 mm 2 mps 590 mmHg 81%
22:00 +15°C° 0 mm 2 mps 590 mmHg 83%
23:00 +15°C° 0 mm 2 mps 590 mmHg 85%

1 August, Sunday

Time Temperature Precipitation Wind Pressure Humidity
00:00 +14°C° 0 mm 2 mps 590 mmHg 85%
01:00 +14°C° 0 mm 2 mps 590 mmHg 85%
02:00 +14°C° 0 mm 2 mps 589 mmHg 85%
03:00 +14°C° 0 mm 2 mps 589 mmHg 85%
04:00 +13°C° 0 mm 2 mps 589 mmHg 85%
05:00 +13°C° 0 mm 2 mps 589 mmHg 85%
06:00 +15°C° 0 mm 2 mps 590 mmHg 77%
07:00 +17°C° 0 mm 2 mps 591 mmHg 68%
08:00 +19°C° 0 mm 2 mps 592 mmHg 60%
09:00 +21°C° 0 mm 2 mps 592 mmHg 54%
10:00 +23°C° 0 mm 2 mps 593 mmHg 48%
11:00 +25°C° 0 mm 2 mps 593 mmHg 43%
12:00 +25°C° 0 mm 2 mps 592 mmHg 43%
13:00 +25°C° 0 mm 3 mps 592 mmHg 43%
14:00 +25°C° 0 mm 3 mps 592 mmHg 43%
15:00 +24°C° 0.2 mm 3 mps 591 mmHg 51%
16:00 +22°C° 0.2 mm 3 mps 591 mmHg 58%
17:00 +20°C° 0.2 mm 2 mps 590 mmHg 65%
18:00 +19°C° 0.8 mm 2 mps 590 mmHg 72%
19:00 +17°C° 0.8 mm 2 mps 590 mmHg 78%
20:00 +16°C° 0.8 mm 1 mps 590 mmHg 85%
21:00 +16°C° 0.1 mm 1 mps 590 mmHg 85%
22:00 +16°C° 0.1 mm 1 mps 590 mmHg 85%
23:00 +15°C° 0.1 mm 1 mps 590 mmHg 85%

2 August, Monday

Time Temperature Precipitation Wind Pressure Humidity
00:00 +15°C° 0 mm 1 mps 590 mmHg 85%
01:00 +15°C° 0 mm 1 mps 590 mmHg 85%
02:00 +15°C° 0 mm 1 mps 590 mmHg 85%
03:00 +14°C° 0 mm 1 mps 590 mmHg 85%
04:00 +14°C° 0 mm 1 mps 590 mmHg 86%
05:00 +14°C° 0 mm 1 mps 590 mmHg 87%
06:00 +15°C° 0.1 mm 1 mps 590 mmHg 80%
07:00 +18°C° 0.1 mm 1 mps 591 mmHg 74%
08:00 +20°C° 0.1 mm 1 mps 592 mmHg 67%
09:00 +21°C° 0.4 mm 1 mps 592 mmHg 62%
10:00 +23°C° 0.4 mm 2 mps 592 mmHg 57%
11:00 +24°C° 0.4 mm 2 mps 592 mmHg 52%
12:00 +23°C° 0.3 mm 2 mps 591 mmHg 56%
13:00 +23°C° 0.3 mm 2 mps 591 mmHg 59%
14:00 +21°C° 0.3 mm 2 mps 590 mmHg 63%
15:00 +20°C° 0.3 mm 2 mps 590 mmHg 67%
16:00 +19°C° 0.3 mm 2 mps 590 mmHg 70%
17:00 +19°C° 0.3 mm 2 mps 589 mmHg 73%
18:00 +18°C° 0.5 mm 2 mps 590 mmHg 76%
19:00 +17°C° 0.5 mm 2 mps 590 mmHg 79%
20:00 +17°C° 0.5 mm 2 mps 590 mmHg 82%
21:00 +18°C° 0.1 mm 1 mps 590 mmHg 83%
22:00 +16°C° 0.1 mm 1 mps 590 mmHg 83%
23:00 +16°C° 0.1 mm 1 mps 590 mmHg 83%

3 August, Tuesday

Time Temperature Precipitation Wind Pressure Humidity
00:00 +16°C° 0 mm 1 mps 590 mmHg 84%
01:00 +14°C° 0 mm 0 mps 589 mmHg 84%
02:00 +14°C° 0 mm 0 mps 589 mmHg 85%
03:00 +15°C° 0 mm 1 mps 589 mmHg 85%
04:00 +14°C° 0 mm 1 mps 589 mmHg 86%
05:00 +14°C° 0 mm 1 mps 589 mmHg 87%
06:00 +15°C° 0 mm 1 mps 590 mmHg 79%
07:00 +18°C° 0 mm 1 mps 590 mmHg 72%
08:00 +20°C° 0 mm 1 mps 591 mmHg 65%
09:00 +21°C° 0 mm 1 mps 591 mmHg 59%
10:00 +23°C° 0 mm 2 mps 592 mmHg 52%
11:00 +24°C° 0 mm 3 mps 592 mmHg 45%
12:00 +25°C° 0 mm 3 mps 592 mmHg 45%
13:00 +25°C° 0 mm 3 mps 591 mmHg 45%
14:00 +25°C° 0 mm 4 mps 591 mmHg 46%
15:00 +24°C° 0.1 mm 3 mps 590 mmHg 51%
16:00 +22°C° 0.1 mm 3 mps 590 mmHg 57%
17:00 +21°C° 0.1 mm 2 mps 589 mmHg 63%
18:00 +19°C° 0.3 mm 2 mps 589 mmHg 69%
19:00 +19°C° 0.3 mm 1 mps 589 mmHg 74%
20:00 +16°C° 0.3 mm 1 mps 589 mmHg 79%
21:00 +16°C° 0.5 mm 1 mps 589 mmHg 83%
22:00 +15°C° 0.5 mm 1 mps 589 mmHg 87%
23:00 +14°C° 0.5 mm 0 mps 590 mmHg 90%
Show more

We Need Your Consent

Meteoprog and our Service Providers may store and access personal data such as cookies, device identifiers or other similar technologies on your device and process such data to personalise content and ads, as well as provide social media features and to analyse the traffic.

  • Store and/or access information on your device

    Cookies, device identifiers or other information can be stored or accessed on your device for the purposes indicated above.

  • Personalised ads and content, ad and content measurement, audience insights, and products development

    Ads and content can be personalised based on a profile. More data can be added to better personalise ads and content. Ad and content performance can be measured. Insights about the audience who saw the ads and content can be derived. Such data can be used to develop or improve user’s experience, systems and software.

By clicking ‘I Agree’ you will allow the use of indicated cookies, device identifiers, web beacons or other similar technologies. Your settings can be changed in the browser on your device.

For certain purposes, legitimate interests may be relied on, rather than consent. You can read more about this in our Privacy and Cookie Policy.